AJT4472 SVMI-KMIA

Flight info

Callsign AJT4472
Flight time N/A
Altitude 32000
Route VADOR2 PULPO UL216 AGMEX UL304 ALRED UL212 OMERO UL218 MIROM DCT ZEUSS VIICE2
Aircraft B763/H-SDE3FGHIM3RWXY/LB1

Departure

Time N/A
Airport Maiquetía Simón Bolívar International Airport (SVMI)

Arrival

Time 2026-04-30 19:46
Airport Miami International Airport (KMIA)
Time Latitude Longitude Altitude Speed Heading
2026-04-30 17:39 15.83901 -69.89368 31923 ft 443 kts 308°
2026-04-30 17:41 16.01287 -70.07478 31914 ft 441 kts 319°
2026-04-30 17:42 16.06379 -70.11140 31920 ft 447 kts 319°
2026-04-30 17:43 16.19281 -70.20355 31909 ft 449 kts 319°
2026-04-30 17:44 16.34732 -70.31374 31903 ft 449 kts 319°
2026-04-30 17:47 16.57960 -70.47976 31898 ft 448 kts 319°
2026-04-30 17:48 16.76013 -70.60913 31893 ft 450 kts 319°
2026-04-30 17:50 16.96627 -70.75724 31932 ft 449 kts 318°
2026-04-30 17:52 17.12105 -70.86867 31930 ft 449 kts 318°
2026-04-30 17:54 17.35229 -71.03542 31930 ft 448 kts 318°
2026-04-30 17:56 17.55815 -71.18427 31932 ft 449 kts 318°
2026-04-30 17:58 17.71241 -71.29611 31927 ft 449 kts 318°
2026-04-30 18:00 17.91779 -71.44536 31975 ft 448 kts 317°
2026-04-30 18:01 18.04689 -71.53940 31989 ft 449 kts 317°
2026-04-30 18:02 18.20089 -71.65183 32069 ft 451 kts 317°
2026-04-30 18:04 18.35599 -71.76526 32057 ft 449 kts 317°
2026-04-30 18:06 18.56731 -71.90939 31952 ft 459 kts 324°
2026-04-30 18:08 18.76347 -72.02323 31978 ft 458 kts 323°
2026-04-30 18:10 18.98695 -72.15446 32008 ft 459 kts 323°
2026-04-30 18:11 19.18253 -72.26968 31974 ft 458 kts 324°
2026-04-30 18:13 19.32205 -72.35207 31940 ft 458 kts 325°
2026-04-30 18:14 19.46117 -72.43436 31960 ft 457 kts 325°
2026-04-30 18:15 19.62810 -72.53333 31986 ft 456 kts 326°
2026-04-30 18:16 19.73877 -72.60011 31966 ft 454 kts 320°
2026-04-30 18:17 19.78337 -72.64629 31984 ft 444 kts 302°
2026-04-30 18:17 19.81005 -72.70416 31951 ft 437 kts 285°
2026-04-30 18:18 19.81864 -72.73544 31947 ft 438 kts 284°
2026-04-30 18:18 19.83439 -72.79775 31940 ft 437 kts 283°
2026-04-30 18:19 19.84902 -72.85986 31931 ft 434 kts 282°
2026-04-30 18:19 19.86343 -72.92253 31951 ft 439 kts 283°
2026-04-30 18:20 19.87842 -72.98530 31920 ft 436 kts 282°
2026-04-30 18:20 19.89310 -73.04745 31940 ft 434 kts 282°
2026-04-30 18:21 19.90734 -73.10998 31934 ft 436 kts 282°
2026-04-30 18:21 19.92102 -73.17311 31940 ft 437 kts 282°
2026-04-30 18:22 19.93498 -73.23556 31935 ft 434 kts 282°
2026-04-30 18:22 19.95598 -73.32954 31934 ft 438 kts 282°
2026-04-30 18:23 19.97112 -73.39204 31933 ft 439 kts 287°
2026-04-30 18:23 19.98953 -73.45398 31918 ft 438 kts 286°
2026-04-30 18:24 20.01666 -73.54628 31928 ft 438 kts 286°
2026-04-30 18:25 20.03477 -73.60807 31925 ft 440 kts 286°
2026-04-30 18:25 20.06198 -73.70112 31940 ft 437 kts 286°
2026-04-30 18:26 20.08896 -73.79360 31937 ft 439 kts 286°
2026-04-30 18:27 20.11620 -73.88719 31953 ft 439 kts 286°
2026-04-30 18:28 20.14319 -73.98010 31942 ft 439 kts 286°
2026-04-30 18:28 20.18931 -74.06396 31955 ft 447 kts 310°
2026-04-30 18:29 20.27517 -74.16018 31947 ft 446 kts 310°
2026-04-30 18:30 20.36092 -74.25552 31952 ft 447 kts 311°
2026-04-30 18:31 20.42531 -74.32707 31958 ft 446 kts 311°
2026-04-30 18:32 20.48981 -74.39883 31937 ft 446 kts 311°
2026-04-30 18:33 20.55415 -74.47051 31947 ft 447 kts 311°
2026-04-30 18:33 20.61896 -74.54275 31929 ft 448 kts 311°
2026-04-30 18:34 20.68326 -74.61456 31931 ft 446 kts 311°
2026-04-30 18:35 20.72618 -74.66256 31943 ft 447 kts 311°
2026-04-30 18:35 20.76908 -74.71054 31942 ft 447 kts 311°
2026-04-30 18:36 20.83375 -74.78298 31952 ft 447 kts 311°
2026-04-30 18:37 20.89791 -74.85494 31943 ft 447 kts 311°
2026-04-30 18:37 20.94081 -74.90312 31959 ft 448 kts 312°
2026-04-30 18:38 20.98391 -74.95155 31935 ft 448 kts 312°
2026-04-30 18:38 21.02708 -75.00010 31946 ft 448 kts 312°
2026-04-30 18:39 21.06983 -75.04823 31948 ft 449 kts 312°
2026-04-30 18:39 21.11317 -75.09709 31927 ft 449 kts 312°
2026-04-30 18:40 21.15608 -75.14548 31962 ft 449 kts 313°
2026-04-30 18:40 21.19898 -75.19390 31942 ft 449 kts 313°
2026-04-30 18:41 21.24186 -75.24233 31955 ft 448 kts 313°
2026-04-30 18:41 21.28482 -75.29095 31961 ft 449 kts 313°
2026-04-30 18:42 21.32790 -75.33972 31935 ft 453 kts 313°
2026-04-30 18:42 21.39296 -75.41341 31939 ft 451 kts 314°
2026-04-30 18:45 21.63149 -75.68457 31937 ft 458 kts 315°
2026-04-30 18:46 21.67524 -75.73444 31942 ft 460 kts 315°
2026-04-30 18:46 21.71907 -75.78448 31951 ft 461 kts 315°
2026-04-30 18:47 21.76298 -75.83465 31949 ft 461 kts 315°
2026-04-30 18:47 21.80690 -75.88487 31948 ft 460 kts 315°
2026-04-30 18:48 21.85119 -75.93555 31959 ft 463 kts 315°
2026-04-30 18:48 21.89516 -75.98595 31953 ft 467 kts 315°
2026-04-30 18:49 21.93955 -76.03685 31966 ft 464 kts 315°
2026-04-30 18:49 21.98387 -76.08774 31967 ft 465 kts 315°
2026-04-30 18:50 22.02803 -76.13848 31964 ft 463 kts 315°
2026-04-30 18:50 22.07205 -76.18912 31965 ft 463 kts 315°
2026-04-30 18:51 22.11635 -76.24011 31972 ft 466 kts 315°
2026-04-30 18:51 22.16054 -76.29105 31962 ft 464 kts 315°
2026-04-30 18:52 22.20450 -76.34179 31970 ft 460 kts 315°
2026-04-30 18:52 22.24810 -76.39212 31974 ft 462 kts 315°
2026-04-30 18:53 22.29222 -76.44312 31972 ft 464 kts 315°
2026-04-30 18:53 22.33604 -76.49382 31968 ft 461 kts 315°
2026-04-30 18:54 22.37987 -76.54458 31967 ft 461 kts 315°
2026-04-30 18:54 22.42361 -76.59529 31967 ft 463 kts 315°
2026-04-30 18:55 22.46738 -76.64607 31957 ft 462 kts 315°
2026-04-30 18:55 22.53264 -76.72189 31953 ft 458 kts 315°
2026-04-30 18:56 22.59763 -76.79751 31955 ft 457 kts 315°
2026-04-30 18:57 22.66234 -76.87292 31953 ft 456 kts 315°
2026-04-30 18:57 22.70556 -76.92335 31951 ft 457 kts 315°
2026-04-30 18:58 22.77016 -76.99880 31937 ft 455 kts 314°
2026-04-30 18:59 22.83504 -77.07471 31944 ft 456 kts 315°
2026-04-30 19:00 22.92070 -77.17509 31943 ft 456 kts 314°
2026-04-30 19:01 23.00578 -77.27679 31937 ft 452 kts 314°
2026-04-30 19:02 23.06899 -77.35317 31944 ft 456 kts 314°
2026-04-30 19:03 23.14460 -77.46394 31950 ft 457 kts 307°
2026-04-30 19:04 23.21750 -77.57592 31944 ft 455 kts 307°
2026-04-30 19:05 23.29063 -77.68864 31948 ft 456 kts 307°
2026-04-30 19:06 23.36340 -77.80106 31948 ft 454 kts 307°
2026-04-30 19:06 23.41807 -77.88570 31946 ft 457 kts 307°
2026-04-30 19:07 23.47257 -77.97021 31945 ft 453 kts 306°
2026-04-30 19:08 23.54533 -78.08325 31947 ft 456 kts 306°
2026-04-30 19:09 23.59981 -78.16808 31950 ft 455 kts 307°
2026-04-30 19:09 23.63607 -78.22460 31937 ft 455 kts 306°
2026-04-30 19:10 23.70872 -78.33804 31942 ft 456 kts 306°
2026-04-30 19:11 23.76292 -78.42286 31944 ft 455 kts 307°
2026-04-30 19:12 23.79929 -78.47981 31938 ft 457 kts 307°
2026-04-30 19:12 23.83527 -78.53625 31933 ft 454 kts 307°
2026-04-30 19:13 23.90771 -78.65008 31938 ft 457 kts 306°
2026-04-30 19:14 23.94410 -78.70735 31935 ft 454 kts 306°
2026-04-30 19:14 23.98025 -78.76397 31942 ft 458 kts 309°
2026-04-30 19:15 24.02591 -78.81128 31947 ft 453 kts 327°
2026-04-30 19:15 24.10650 -78.86557 31931 ft 452 kts 329°
2026-04-30 19:16 24.16039 -78.90144 31946 ft 452 kts 329°
2026-04-30 19:17 24.24134 -78.95519 31941 ft 451 kts 329°
2026-04-30 19:17 24.32191 -79.00864 31953 ft 451 kts 329°
2026-04-30 19:18 24.36643 -79.03822 31942 ft 438 kts 329°
2026-04-30 19:18 24.40039 -79.06082 31950 ft 419 kts 329°
2026-04-30 19:19 24.44964 -79.09358 31963 ft 414 kts 329°
2026-04-30 19:19 24.47441 -79.11007 31751 ft 425 kts 329°
2026-04-30 19:19 24.52628 -79.14461 30732 ft 439 kts 329°
2026-04-30 19:20 24.55235 -79.16198 30234 ft 435 kts 329°
2026-04-30 19:20 24.57795 -79.17905 29752 ft 432 kts 329°
2026-04-30 19:20 24.62901 -79.21313 28801 ft 428 kts 329°
2026-04-30 19:21 24.65463 -79.23025 28346 ft 427 kts 329°
2026-04-30 19:21 24.70521 -79.26405 27417 ft 425 kts 328°
2026-04-30 19:22 24.75533 -79.29758 26481 ft 416 kts 328°
2026-04-30 19:22 24.82893 -79.34688 25115 ft 407 kts 328°
2026-04-30 19:23 24.90064 -79.39500 23823 ft 400 kts 328°
2026-04-30 19:24 24.94827 -79.42697 22956 ft 397 kts 327°
2026-04-30 19:24 24.97170 -79.44271 22535 ft 393 kts 327°
2026-04-30 19:24 25.01823 -79.47401 21751 ft 388 kts 327°
2026-04-30 19:25 25.08622 -79.51979 20494 ft 377 kts 327°
2026-04-30 19:26 25.13034 -79.54953 19873 ft 369 kts 327°
2026-04-30 19:26 25.17384 -79.57887 19040 ft 362 kts 327°
2026-04-30 19:26 25.19532 -79.59337 18624 ft 359 kts 327°
2026-04-30 19:27 25.23749 -79.62185 17789 ft 353 kts 327°
2026-04-30 19:27 25.27901 -79.64991 16947 ft 347 kts 327°
2026-04-30 19:28 25.29970 -79.66390 16541 ft 344 kts 327°
2026-04-30 19:28 25.34043 -79.69147 15753 ft 340 kts 327°
2026-04-30 19:29 25.38017 -79.71890 14966 ft 335 kts 321°
2026-04-30 19:29 25.39638 -79.73724 14613 ft 331 kts 306°
2026-04-30 19:30 25.43650 -79.79884 13506 ft 326 kts 305°
2026-04-30 19:30 25.46267 -79.83945 12755 ft 322 kts 305°
2026-04-30 19:31 25.48864 -79.87992 12045 ft 321 kts 305°
2026-04-30 19:31 25.50140 -79.89983 11745 ft 320 kts 306°
2026-04-30 19:31 25.52731 -79.94029 11111 ft 319 kts 305°
2026-04-30 19:32 25.54022 -79.96046 10830 ft 319 kts 306°
2026-04-30 19:32 25.55294 -79.98036 10671 ft 310 kts 305°
2026-04-30 19:32 25.56502 -79.99925 10657 ft 295 kts 305°
2026-04-30 19:32 25.57662 -80.01741 10588 ft 284 kts 305°
2026-04-30 19:33 25.58810 -80.03539 10469 ft 285 kts 305°
2026-04-30 19:33 25.59961 -80.05342 10149 ft 285 kts 306°
2026-04-30 19:33 25.61086 -80.07104 9777 ft 281 kts 305°
2026-04-30 19:33 25.62203 -80.08856 9618 ft 273 kts 306°
2026-04-30 19:34 25.63293 -80.10565 9463 ft 271 kts 306°
2026-04-30 19:34 25.64385 -80.12277 9217 ft 271 kts 306°
2026-04-30 19:34 25.66233 -80.15859 8813 ft 266 kts 296°
2026-04-30 19:35 25.67034 -80.17723 8651 ft 267 kts 296°
2026-04-30 19:35 25.67828 -80.19576 8482 ft 267 kts 296°
2026-04-30 19:35 25.68619 -80.21432 8312 ft 265 kts 296°
2026-04-30 19:35 25.69412 -80.23292 8045 ft 268 kts 296°
2026-04-30 19:36 25.70212 -80.25175 7760 ft 266 kts 295°
2026-04-30 19:36 25.70954 -80.27032 7396 ft 269 kts 286°
2026-04-30 19:36 25.71037 -80.31181 6774 ft 267 kts 269°
2026-04-30 19:37 25.70965 -80.33227 6524 ft 264 kts 269°
2026-04-30 19:37 25.70880 -80.35266 6236 ft 264 kts 269°
2026-04-30 19:37 25.70791 -80.37274 5932 ft 263 kts 269°
2026-04-30 19:37 25.70698 -80.39314 5656 ft 260 kts 268°
2026-04-30 19:38 25.70607 -80.41264 5614 ft 247 kts 268°
2026-04-30 19:38 25.70517 -80.43150 5425 ft 243 kts 268°
2026-04-30 19:38 25.70382 -80.45026 5003 ft 247 kts 266°
2026-04-30 19:38 25.70227 -80.46892 4698 ft 245 kts 266°
2026-04-30 19:39 25.70072 -80.48790 4326 ft 244 kts 265°
2026-04-30 19:39 25.69920 -80.50650 3968 ft 244 kts 265°
2026-04-30 19:39 25.69768 -80.52525 3605 ft 243 kts 265°
2026-04-30 19:39 25.69660 -80.54389 3236 ft 243 kts 275°
2026-04-30 19:40 25.70209 -80.56113 3026 ft 236 kts 308°
2026-04-30 19:40 25.71482 -80.57167 3044 ft 233 kts 341°
2026-04-30 19:40 25.73106 -80.57511 3027 ft 241 kts 353°
2026-04-30 19:40 25.74796 -80.57519 2986 ft 242 kts 15°
2026-04-30 19:41 25.76253 -80.56630 3017 ft 241 kts 46°
2026-04-30 19:41 25.77300 -80.55167 3000 ft 243 kts 63°
2026-04-30 19:41 25.77664 -80.53404 3060 ft 229 kts 89°
2026-04-30 19:41 25.77715 -80.51672 3048 ft 228 kts 87°
2026-04-30 19:42 25.77801 -80.49909 2988 ft 228 kts 87°
2026-04-30 19:42 25.77881 -80.48154 2897 ft 231 kts 87°
2026-04-30 19:42 25.77962 -80.46358 2594 ft 231 kts 88°
2026-04-30 19:42 25.78041 -80.44593 2277 ft 227 kts 88°
2026-04-30 19:43 25.78117 -80.42871 1990 ft 223 kts 89°
2026-04-30 19:43 25.78192 -80.41186 1690 ft 209 kts 90°
2026-04-30 19:43 25.78258 -80.39664 1451 ft 190 kts 89°
2026-04-30 19:44 25.78374 -80.37016 1017 ft 157 kts 90°
2026-04-30 19:44 25.78428 -80.35838 891 ft 152 kts 89°
2026-04-30 19:44 25.78510 -80.34667 706 ft 151 kts 89°
2026-04-30 19:44 25.78566 -80.33484 499 ft 155 kts 92°
2026-04-30 19:45 25.78584 -80.32312 267 ft 151 kts 93°
2026-04-30 19:45 25.78628 -80.31143 61 ft 152 kts 91°
2026-04-30 19:45 25.78673 -80.30001 16 ft 131 kts 88°
2026-04-30 19:45 25.78700 -80.29269 16 ft 64 kts 86°
2026-04-30 19:46 25.78722 -80.28882 16 ft 35 kts 81°
2026-04-30 19:46 25.78798 -80.28706 16 ft 17 kts 46°
2026-04-30 19:46 25.78851 -80.28673 16 ft 6 kts
2026-04-30 19:46 25.78903 -80.28677 16 ft 7 kts 352°
2026-04-30 19:47 25.78944 -80.28705 16 ft 7 kts 295°
2026-04-30 19:47 25.78950 -80.28747 16 ft 10 kts 272°
2026-04-30 19:47 25.78980 -80.28867 16 ft 13 kts 339°
2026-04-30 19:47 25.79074 -80.28909 16 ft 16 kts 310°
2026-04-30 19:48 25.79140 -80.29033 16 ft 20 kts 300°
2026-04-30 19:48 25.79216 -80.29182 16 ft 23 kts 300°
2026-04-30 19:48 25.79296 -80.29340 16 ft 13 kts 298°
2026-04-30 19:48 25.79334 -80.29416 16 ft 10 kts 300°
2026-04-30 19:49 25.79372 -80.29490 16 ft 11 kts 296°
2026-04-30 19:49 25.79331 -80.29566 16 ft 2 kts 209°
2026-04-30 19:49 25.79330 -80.29566 16 ft 0 kts 209°